Flight Track Log - Related Links

Times and Time Zones

All times are in EDT time to prevent confusion due to time zone crossing. See the N859JG flight status page for this flight to view local times or setup timezone preferences in your user account.

Time Position Orientation Groundspeed Altitude Reporting Facility
EDT Latitude Longitude Course Direction KTS MPH feet Rate Location/Type
Mon 09:23:17 AM 39.3167 -76.4333 69° East 133 153 1,400  Level Potomac TRACON
Mon 09:24:17 AM 39.2667 -76.4333 180° South 174 200 1,900 397 Climbing Potomac TRACON
Mon 09:25:18 AM 39.2167 -76.4167 166° South 196 226 2,200 744 Climbing Potomac TRACON
Mon 09:26:18 AM 39.2167 -76.3500 90° East 151 174 3,400 1,100 Climbing Potomac TRACON
Mon 09:27:18 AM 39.2167 -76.3000 90° East 141 162 4,400 842 Climbing Potomac TRACON
Mon 09:28:00 AM 39.4111 -76.1229 69° East  Level Estimated
Mon 09:28:12 AM 39.2167 -76.2500 90° East 152 175 5,000  Level Potomac TRACON
Mon 09:29:12 AM 39.2333 -76.2000 67° East 185 213 5,000 -53 Level Potomac TRACON
Mon 09:30:06 AM 39.2500 -76.1667 57° Northeast 176 203 4,900  Descending Potomac TRACON
Mon 09:32:25 AM 39.3333 -76.0500 47° Northeast 182 209 5,000 30 Climbing Philadelphia TRACON
Mon 09:33:24 AM 39.3667 -76.0000 49° Northeast 182 209 5,000  Level Philadelphia TRACON
Mon 09:34:25 AM 39.4000 -75.9500 49° Northeast 188 216 5,000  Level Philadelphia TRACON
Mon 09:35:25 AM 39.4167 -75.8833 72° East 184 212 5,000  Level Philadelphia TRACON
Mon 09:36:31 AM 39.4500 -75.8167 57° Northeast 188 216 5,000  Level Philadelphia TRACON
Mon 09:37:25 AM 39.4667 -75.7667 67° East 185 213 5,000  Level Philadelphia TRACON
Mon 09:38:31 AM 39.5000 -75.7000 57° Northeast 187 215 5,000  Level Philadelphia TRACON
Mon 09:39:31 AM 39.5167 -75.6333 72° East 185 213 5,000  Level Philadelphia TRACON
Mon 09:40:31 AM 39.5333 -75.5833 67° East 184 212 5,000  Level Philadelphia TRACON
Mon 09:41:37 AM 39.5667 -75.5167 57° Northeast 185 213 5,000  Level Philadelphia TRACON
Mon 09:42:37 AM 39.5833 -75.4500 72° East 186 214 5,000  Level Philadelphia TRACON
Mon 09:43:38 AM 39.6000 -75.4000 67° East 186 214 5,000  Level Philadelphia TRACON
Mon 09:44:38 AM 39.6333 -75.3333 57° Northeast 185 213 5,000  Level Philadelphia TRACON
Mon 09:45:44 AM 39.6500 -75.2667 72° East 185 213 5,000  Level Philadelphia TRACON
Mon 09:46:32 AM 39.6667 -75.2167 67° East 187 215 5,000  Level Philadelphia TRACON
Mon 09:47:26 AM 39.6833 -75.1667 67° East 186 214 5,000  Level Philadelphia TRACON
Mon 09:48:32 AM 39.7167 -75.1000 57° Northeast 187 215 5,000  Level Philadelphia TRACON
Mon 09:50:00 AM 39.7354 -75.0252 72° East  Level FlightAware Approximate
Mon 09:57:00 AM 39.7895 -74.6573 79° East  Level FlightAware Approximate
Mon 09:58:00 AM 39.7970 -74.6045 79° East  Level FlightAware Approximate
Mon 09:59:00 AM 39.8000 -74.5512 90° East  Level FlightAware Approximate
Mon 10:00:00 AM 39.8000 -74.4975 90° East  Level FlightAware Approximate
Mon 10:01:00 AM 39.8026 -74.4448 57° Northeast  Level FlightAware Approximate
Mon 10:02:00 AM 39.8251 -74.3998 57° Northeast  Level FlightAware Approximate
Mon 10:03:00 AM 39.8540 -74.3626 38° Northeast  Level FlightAware Approximate
Mon 10:04:00 AM 39.8844 -74.3264 46° Northeast  Level FlightAware Approximate
Mon 10:05:00 AM 39.9132 -74.2880 46° Northeast  Level FlightAware Approximate
Mon 10:06:00 AM 39.9167 -74.2833 46° Northeast  Level FlightAware Approximate
Mon 10:07:00 AM 39.9275 -74.2924 46° Northeast  Level Estimated
Mon 10:08:00 AM 39.9275 -74.2924 46° Northeast  Level Estimated
Mon 10:09:00 AM 39.9275 -74.2924 46° Northeast  Level Estimated

Login

Don't have an account? Register now (free) for customized features, flight alerts, and more!